Hourly Data Report for September 16, 2017

All times are specified in Local Standard Time (LST). Add 1 hour to adjust for Daylight Saving Time where and when it is observed.

BATHURST A
NEW BRUNSWICK

47°37'47.000" N
65°44'20.000" W
58.80 m
8100505
71574
ZBF

Download Data

Hourly Data (September 2017)
Hourly Data Report for September 16, 2017
Temp Definition
°C
Dew Point Temp Definition
°C
Rel Hum Definition
%
Wind Dir Definition
10's deg

Wind Spd Definition
km/h
Visibility Definition
km
Stn Press Definition
kPa
Hmdx Definition


Wind Chill Definition


Weather Definition


TIME
00:00 Legend Double Dagger 9.3 8.5 95 0 1 24.1 101.18     LegendNANA
01:00 Legend Double Dagger 8.8 8.2 96 24 9 24.1 101.17     LegendNANA
02:00 Legend Double Dagger 9.1 8.5 96 21 5 19.3 101.12     Clear
03:00 Legend Double Dagger 9.5 8.5 94 25 4 19.3 101.10     LegendNANA
04:00 Legend Double Dagger 8.9 8.2 95 36 3 24.1 101.07     LegendNANA
05:00 Legend Double Dagger 9.2 8.4 95 22 7 19.3 101.02     Mainly Clear
06:00 Legend Double Dagger 9.8 8.9 94 21 4 19.3 101.02     LegendNANA
07:00 Legend Double Dagger 11.0 9.6 91 3 4 19.3 101.03     LegendNANA
08:00 Legend Double Dagger 13.9 11.2 84 36 2 19.3 101.06     Cloudy
09:00 Legend Double Dagger 16.4 12.8 79 36 2 19.3 101.09     LegendNANA
10:00 Legend Double Dagger 18.2 13.9 76 3 8 19.3 101.09     LegendNANA
11:00 Legend Double Dagger 20.4 14.7 69 7 5 19.3 101.06     Cloudy
12:00 Legend Double Dagger 21.6 14.4 63 9 19 19.3 101.08 25   LegendNANA
13:00 Legend Double Dagger 21.3 15.4 69 2 4 24.1 101.14 26   LegendNANA
14:00 Legend Double Dagger 19.1 13.9 71 1 10 24.1 101.23     Cloudy
15:00 Legend Double Dagger 16.2 12.8 80 4 7 24.1 101.27     LegendNANA
16:00 Legend Double Dagger 16.1 12.6 79 34 5 24.1 101.34     LegendNANA
17:00 Legend Double Dagger 16.3 12.5 78 12 7 24.1 101.34     Cloudy
18:00 Legend Double Dagger 15.5 11.7 78 7 6 24.1 101.43     LegendNANA
19:00 Legend Double Dagger 14.5 11.7 83 12 9 24.1 101.42     LegendNANA
20:00 Legend Double Dagger 14.1 11.3 83 12 9 24.1 101.48     Cloudy
21:00 Legend Double Dagger 13.7 11.2 85 14 6 19.3 101.56     LegendNANA
22:00 Legend Double Dagger 13.4 10.9 84 13 5 19.3 101.59     LegendNANA
23:00 Legend Double Dagger 13.1 10.3 83 15 4 19.3 101.62     Cloudy

Notes on Data Quality.

Legend

  • E = Estimated
  • M = Missing
  • NA = Not Available
  • ‡ = Partner data that is not subject to review by the National Climate Archives
Date modified: